Home   Weather   Casablanca   Past weeks
Flag for Morocco

Past Weather in Casablanca, Morocco — Yesterday and Last 2 Weeks

Now
68 °F

Passing clouds.


Feels Like: 68 °F
Forecast: 77 / 69 °F
Wind: 8 mph from Northeast

Location: Nouasseur

Current Time: Jul 18, 2019 at 4:27:52 am

Latest Report: Jul 18, 2019 at 3:30 am


Visibility: N/A

Pressure: 30.01 "Hg

Humidity: 78%

Dew Point: 61 °F

Location of CasablancaLocation

Past Weather in Casablanca — Graph

°F

Casablanca Temperature Yesterday

Maximum temperature yesterday: 77 °F (at 1:00 pm)
Minimum temperature yesterday: 68 °F (at 12:00 am)
Average temperature yesterday: 71 °F

High & Low Weather Summary for the Past Weeks

 TemperatureHumidityPressure
High84 °F (Jul 13, 1:00 pm)100% (Jul 6, 6:39 am)30.09 "Hg (Jul 6, 6:39 am)
Low63 °F (Jul 4, 4:00 am)44% (Jul 3, 12:00 pm)29.89 "Hg (Jul 10, 2:30 pm)
Average72 °F78%30.02 "Hg
* Reported Jul 3 3:00 am — Jul 18 3:00 am, Casablanca. Weather by CustomWeather, © 2019

Note: Actual official high and low records may vary slightly from our data, if they occured in-between our weather recording intervals... More about our weather records

Advertising

Casablanca Weather History for the Previous 24 Hours

Scroll right to see more
 ConditionsComfort  
Time TempWeatherWind HumidityBarometerVisibility
3:00 am
Thu, Jul 18
68 °FPassing clouds.10 mph78%30.01 "HgN/A
2:30 am68 °FPassing clouds.8 mph78%30.01 "HgN/A
2:00 am68 °FPassing clouds.13 mph73%30.04 "HgN/A
1:30 am68 °FPassing clouds.9 mph78%30.04 "HgN/A
1:00 am68 °FPassing clouds.9 mph78%30.04 "HgN/A
12:30 am68 °FPassing clouds.7 mph78%30.07 "HgN/A
12:00 am68 °FPassing clouds.10 mph78%30.07 "HgN/A
11:30 pm
Wed, Jul 17
68 °FPassing clouds.13 mph78%30.07 "HgN/A
11:00 pm68 °FPassing clouds.13 mph78%30.07 "HgN/A
10:30 pm68 °FPassing clouds.10 mph78%30.07 "HgN/A
10:00 pm68 °FPassing clouds.10 mph78%30.07 "HgN/A
9:30 pm68 °FPassing clouds.9 mph78%30.07 "HgN/A
9:00 pm68 °FPassing clouds.9 mph64%30.07 "HgN/A
8:00 pm70 °FPassing clouds.9 mph60%30.04 "HgN/A
7:30 pm72 °FPassing clouds.12 mph61%30.04 "HgN/A
7:00 pm73 °FPassing clouds.12 mph57%30.04 "HgN/A
6:30 pm73 °FPassing clouds.9 mph57%30.04 "HgN/A
6:00 pm75 °FPassing clouds.9 mph54%30.04 "HgN/A
5:30 pm75 °FPassing clouds.12 mph54%30.04 "HgN/A
5:00 pm75 °FPassing clouds.13 mph61%30.04 "HgN/A
4:00 pm77 °FPassing clouds.15 mph57%30.04 "HgN/A
3:30 pm77 °FPassing clouds.14 mph57%30.07 "HgN/A
3:00 pm77 °FPassing clouds.14 mph57%30.07 "HgN/A
2:30 pm77 °FPassing clouds.12 mph57%30.07 "HgN/A
2:00 pm77 °FPassing clouds.12 mph57%30.07 "HgN/A
1:30 pm77 °FPassing clouds.9 mph61%30.07 "HgN/A
1:00 pm77 °FPassing clouds.12 mph61%30.07 "HgN/A
12:30 pm75 °FPassing clouds.9 mph61%30.09 "HgN/A
12:00 pm75 °FScattered clouds.8 mph65%30.09 "HgN/A
11:30 am73 °FScattered clouds.7 mph65%30.09 "HgN/A
11:00 am72 °FPartly sunny.7 mph73%30.09 "HgN/A
10:30 am72 °FPartly sunny.8 mph73%30.09 "HgN/A
10:00 am70 °FPartly sunny.7 mph78%30.09 "HgN/A
9:00 am68 °FPartly sunny.9 mph83%30.07 "HgN/A
8:30 am70 °FPartly sunny.7 mph78%30.07 "HgN/A
8:00 am68 °FPartly sunny.8 mph83%30.07 "HgN/A
7:30 am68 °FPartly sunny.8 mph83%30.04 "HgN/A
7:00 am68 °FPartly sunny.8 mph83%30.04 "HgN/A
6:30 am68 °FPartly sunny.7 mph83%30.04 "HgN/A
6:00 am68 °FPartly sunny.7 mph83%30.04 "HgN/A
5:00 am68 °FPassing clouds.9 mph83%30.04 "HgN/A
4:30 am68 °FPassing clouds.7 mph88%30.04 "HgN/A
4:00 am68 °FPassing clouds.8 mph88%30.04 "HgN/A
Weather by CustomWeather, © 2019

See weather overview